Flag for Canada Weather past 2 weeks in Regina, Saskatchewan, Canada

Now
63 °F

Partly sunny.


Feels Like: 63 °F
Forecast: 47 / 74 °F
Wind: 5 mph from South

Location: Regina Weather Station

Current Time: Jul 7, 2015 at 9:47:44 AM

Latest Report: Jul 7, 2015 at 9:00 AM


Visibility: 15 mi

Pressure: 30.05 "Hg (28.08 "Hg at 577m altitude)

Humidity: 77%

Dew point: 55 °F

Location of ReginaLocation

Historic Weather in Regina — Graph

°F

Regina temperature yesterday

Maximum temperature yesterday: 70 °F (at 4:00 PM)
Minimum temperature yesterday: 43 °F (at 5:00 AM)
Average temperature yesterday: 59 °F

Past Weeks' High & Low Weather Summary

 TemperatureHumidityPressure
High90 °F (Jun 28, 4:00 PM)100% (Jun 27, 5:00 AM)30.25 "Hg (Jun 27, 5:00 AM)
Low43 °F (Jul 6, 5:00 AM)26% (Jun 25, 4:00 PM)29.72 "Hg (Jul 4, 6:00 AM)
Average67 °F67%30.00 "Hg
* Reported Jun 22 8:00 AM — Jul 7 8:00 AM, Regina, Weather by CustomWeather, © 2015

Note: Actual official high and low records may vary slightly from our data, if they occured in-between our weather recording intervals... More about our weather records

Advertising

Regina weather history for previous 24 hours

 ConditionsComfort  
Time TempWeatherWind HumidityBarometerVisibility
8:00 AM
Tue, Jul 7
57 °FBroken clouds.7 mph77%30.07 "Hg15 mi
7:00 AM52 °FBroken clouds.9 mph82%30.08 "Hg15 mi
6:00 AM50 °FPartly sunny.7 mph82%30.09 "Hg15 mi
5:00 AM48 °FMore clouds than sun.7 mph87%30.10 "Hg15 mi
4:00 AM52 °FMostly cloudy.9 mph77%30.12 "Hg15 mi
3:00 AM50 °FPassing clouds.7 mph76%30.13 "Hg15 mi
2:00 AM50 °FPassing clouds.9 mph76%30.14 "Hg15 mi
1:00 AM48 °FPassing clouds.8 mph82%30.14 "Hg15 mi
12:00 AM52 °FPassing clouds.7 mph77%30.15 "Hg10 mi
11:00 PM
Mon, Jul 6
54 °FPassing clouds.7 mph72%30.15 "Hg10 mi
10:00 PM59 °FPassing clouds.7 mph63%30.15 "Hg8 mi
9:00 PM61 °FPartly sunny.7 mph55%30.15 "Hg8 mi
8:00 PM64 °FPartly sunny.6 mph52%30.15 "Hg10 mi
7:00 PM68 °FScattered clouds.3 mph43%30.16 "Hg10 mi
6:00 PM70 °FPartly sunny.6 mph38%30.18 "Hg10 mi
5:00 PM70 °FScattered clouds.8 mph40%30.20 "Hg10 mi
4:00 PM70 °FPassing clouds.8 mph38%30.20 "Hg10 mi
3:00 PM68 °FPassing clouds.5 mph38%30.21 "Hg10 mi
2:00 PM66 °FPassing clouds.3 mph40%30.22 "Hg12 mi
1:00 PM68 °FScattered clouds.8 mph40%30.22 "Hg15 mi
12:00 PM66 °FPassing clouds.8 mph40%30.23 "Hg15 mi
11:00 AM64 °FScattered clouds.7 mph43%30.24 "Hg15 mi
10:00 AM63 °FScattered clouds.2 mph45%30.24 "Hg15 mi
9:00 AM61 °FScattered clouds.3 mph59%30.25 "Hg15 mi
Weather by CustomWeather, © 2015

See weather overviewHow to use our weather pages